Waarnemingen

Advertentie
Mijn weer
Stornoway, Groot Brittannië (3026): temperatuur & dauwpunt: 17.10.2017 23:00:00 - 23.10.2017 23:00:00 (BST)Stornoway, Groot Brittannië (3026): temperatuur -20cm & temperatuur -100cm: 17.10.2017 23:00:00 - 23.10.2017 23:00:00 (BST)Stornoway, Groot Brittannië (3026): windsnelheid & windstoten: 17.10.2017 23:00:00 - 23.10.2017 23:00:00 (BST)Stornoway, Groot Brittannië (3026): windrichting: 17.10.2017 23:00:00 - 23.10.2017 23:00:00 (BST)Stornoway, Groot Brittannië (3026): luchtdruk: 17.10.2017 23:00:00 - 23.10.2017 23:00:00 (BST)Stornoway, Groot Brittannië (3026): zicht: 17.10.2017 23:00:00 - 23.10.2017 23:00:00 (BST)Stornoway, Groot Brittannië (3026): Zonneschijnduur: 17.10.2017 23:00:00 - 23.10.2017 23:00:00 (BST)Stornoway, Groot Brittannië (3026): neerslag: 17.10.2017 23:00:00 - 23.10.2017 23:00:00 (BST)
Datum & Tijd tt [°C] td [°C] tt -20cm [°C] tt -100cm [°C] ff [km/u] ff [kn] fx [km/u] fx [kn] dd ppp [hPa] vv [km] sd [min] rr [mm]
23.10.2017 23:00:00 9,6 7,7 - - 22 12 - - ZZW 1004,3 19 0 0,2
23.10.2017 22:00:00 9,4 7,7 - - 26 14 - - Z 1004,8 11 0 0,6
23.10.2017 21:00:00 10,3 8,0 - - 26 14 - - ZZW 1004,4 10 0 0,0
23.10.2017 20:00:00 10,1 7,7 - - 22 12 - - ZZW 1004,6 13 0 0,0
23.10.2017 19:00:00 8,8 6,9 - - 9 5 - - ZZW 1004,5 12 0 0,0
23.10.2017 18:00:00 10,0 7,7 - - 9 5 - - ZZW 1003,9 12 0 0,0
23.10.2017 17:00:00 11,6 9,2 - - 24 13 - - ZW 1003,2 12 30 0,0
23.10.2017 16:00:00 12,5 10,1 - - 31 17 54 29 ZW 1002,7 10 18 0,4
23.10.2017 15:00:00 11,8 10,1 - - 37 20 55 30 ZZW 1002,5 1,2 18 2,4
23.10.2017 14:00:00 13,3 10,5 - - 31 17 48 26 ZZW 1002,6 9 42 0,0
23.10.2017 13:00:00 13,4 10,8 - - 35 19 48 26 ZZW 1002,7 8 60 0,0
23.10.2017 12:00:00 13,3 10,3 - - 31 17 - - ZZW 1002,8 13 60 0,2
23.10.2017 11:00:00 12,9 10,8 - - 24 13 - - ZZW 1002,6 16 48 0,0
23.10.2017 10:00:00 12,0 11,2 - - 21 11 57 31 Z 1002,6 14 0 -
23.10.2017 09:00:00 11,7 11,3 - - 41 22 59 32 Z 1002,3 5 0 -
23.10.2017 08:00:00 11,2 10,6 - - 39 21 63 34 Z 1002,2 4,8 0 -
23.10.2017 07:00:00 10,9 9,8 - - 39 21 57 31 ZZO 1002,9 3,6 0 -
23.10.2017 06:00:00 10,2 9,2 - - 34 18 46 25 ZZO 1003,8 9 0 -
23.10.2017 05:00:00 10,0 8,4 - - 35 19 55 30 Z 1004,6 10 0 0,2
23.10.2017 04:00:00 10,4 8,2 - - 35 19 52 28 ZZO 1005,4 20 0 0,2
23.10.2017 03:00:00 10,7 7,4 - - 34 18 48 26 ZZO 1006,3 21 0 0,0
23.10.2017 02:00:00 10,6 7,2 - - 34 18 - - ZZO 1007,0 22 0 0,0
23.10.2017 01:00:00 10,4 6,8 - - 22 12 - - Z 1007,8 28 - 0,0
23.10.2017 00:00:00 9,8 6,4 - - 26 14 - - Z 1008,4 27 0 0,0
22.10.2017 23:00:00 7,6 5,5 - - 15 8 - - ZZW 1008,8 26 0 0,0
22.10.2017 22:00:00 6,2 5,0 - - 9 5 - - ZZW 1009,1 23 0 0,0
22.10.2017 21:00:00 7,1 6,0 - - 5 3 - - ZW 1009,0 23 0 -
22.10.2017 20:00:00 8,2 7,0 - - 11 6 - - ZW 1009,1 18 0 0,0
22.10.2017 19:00:00 8,5 7,6 - - 13 7 - - WZW 1008,7 17 0 0,0
22.10.2017 18:00:00 9,1 8,0 - - 22 12 - - W 1008,1 25 0 0,0
22.10.2017 17:00:00 10,0 8,0 - - 24 13 - - W 1007,3 25 30 0,0
22.10.2017 16:00:00 11,1 8,3 - - 22 12 - - W 1006,8 30 30 0,0
22.10.2017 15:00:00 10,6 7,8 - - 18 10 - - W 1006,1 28 30 0,0
22.10.2017 14:00:00 11,3 8,8 - - 26 14 - - W 1005,5 27 12 0,0
22.10.2017 13:00:00 12,1 9,5 - - 21 11 - - WNW 1004,9 40 42 0,0
22.10.2017 12:00:00 11,7 9,2 - - 28 15 - - WNW 1003,7 30 48 0,0
22.10.2017 11:00:00 11,2 9,4 - - 26 14 - - WNW 1003,0 29 24 0,0
22.10.2017 10:00:00 11,3 10,1 10,9 11,2 24 13 - - WNW 1002,4 16 0 0,0
22.10.2017 09:00:00 11,4 10,4 - - 13 7 - - NW 1001,6 20 0 0,0
22.10.2017 08:00:00 10,8 10,2 - - 18 10 - - W 1000,5 24 0 0,0
22.10.2017 07:00:00 10,6 10,1 - - 15 8 - - W 999,5 17 0 0,0
22.10.2017 06:00:00 10,9 10,6 - - 16 9 - - WNW 998,6 14 0 0,0
22.10.2017 05:00:00 10,9 10,7 - - 16 9 - - WNW 997,7 14 0 0,0
22.10.2017 04:00:00 9,7 9,5 - - 2 1 - - WNW 996,9 14 0 -
22.10.2017 03:00:00 8,6 8,4 - - 4 2 - - NO 996,3 12 0 0,0
22.10.2017 02:00:00 7,0 6,6 - - 11 6 - - NW 995,4 11 0 0,0
22.10.2017 01:00:00 7,3 6,9 - - 8 4 - - WNW 994,6 12 - 0,0
22.10.2017 00:00:00 7,4 6,8 - - 8 4 - - WNW 994,0 12 0 0,0
21.10.2017 23:00:00 7,5 6,9 - - 8 4 - - NW 993,3 13 0 0,0
21.10.2017 22:00:00 8,2 7,2 - - 5 3 - - NW 992,5 19 0 0,0
21.10.2017 21:00:00 10,4 9,0 - - 2 1 - - NW 991,7 15 0 0,0
21.10.2017 20:00:00 11,3 10,2 - - 11 6 - - N 991,0 11 0 0,0
21.10.2017 19:00:00 11,6 10,3 - - 11 6 - - NNO 990,4 11 0 0,0
21.10.2017 18:00:00 11,8 10,2 - - 8 4 - - N 989,9 8 0 0,0
21.10.2017 17:00:00 12,5 10,6 - - 8 4 - - NNO 989,5 12 12 0,0
21.10.2017 16:00:00 12,7 10,4 - - 13 7 - - NNO 989,1 12 12 0,0
21.10.2017 15:00:00 14,6 10,6 - - 15 8 - - O 989,0 35 48 0,0
21.10.2017 14:00:00 12,6 10,1 - - 8 4 - - NO 988,9 28 30 0,0
21.10.2017 13:00:00 14,2 9,3 - - 22 12 - - OZO 988,7 35 60 0,0
21.10.2017 12:00:00 13,3 9,5 - - 28 15 - - OZO 988,8 21 60 0,0
21.10.2017 11:00:00 12,9 9,6 - - 26 14 - - OZO 989,0 24 54 0,0
21.10.2017 10:00:00 11,7 9,1 11,0 11,2 28 15 - - OZO 989,2 35 24 0,0
21.10.2017 09:00:00 11,2 8,9 - - 29 16 - - OZO 989,0 45 0 0,0
21.10.2017 08:00:00 11,2 8,6 - - 28 15 - - OZO 988,7 30 0 0,2
21.10.2017 07:00:00 11,5 8,8 - - 31 17 - - OZO 989,0 40 0 -
21.10.2017 06:00:00 11,4 8,9 - - 35 19 - - OZO 989,2 30 0 -
21.10.2017 05:00:00 10,7 9,1 - - 28 15 - - OZO 989,7 29 0 -
21.10.2017 04:00:00 11,1 8,9 - - 28 15 - - ZZO 990,6 12 0 -
21.10.2017 03:00:00 12,0 10,7 - - 22 12 - - OZO 991,0 14 0 -
21.10.2017 02:00:00 12,2 11,1 - - 21 11 - - O 991,1 6 0 -
21.10.2017 01:00:00 12,4 10,8 - - 22 12 - - O 991,9 29 - -
21.10.2017 00:00:00 12,4 10,8 - - 18 10 - - OZO 993,2 23 0 -
20.10.2017 23:00:00 12,3 10,8 - - 28 15 - - O 994,2 24 0 -
20.10.2017 22:00:00 12,4 10,9 - - 22 12 - - O 995,3 30 0 -
20.10.2017 21:00:00 11,9 10,8 - - 22 12 - - O 995,8 27 0 0,0
20.10.2017 20:00:00 11,1 10,0 - - 28 15 - - ONO 997,0 18 0 0,0
20.10.2017 19:00:00 10,8 9,2 - - 26 14 - - ONO 997,8 25 0 0,0
20.10.2017 18:00:00 10,5 8,8 - - 18 10 - - ONO 998,5 25 0 0,0
20.10.2017 17:00:00 11,1 8,1 - - 15 8 - - NO 999,1 35 6 0,0
20.10.2017 16:00:00 11,0 8,8 - - 9 5 - - NNO 999,7 27 0 0,0
20.10.2017 15:00:00 11,3 8,1 - - 4 2 - - NO 1000,1 26 0 0,0
20.10.2017 14:00:00 11,6 8,5 - - 9 5 - - N 1000,1 22 0 0,0
20.10.2017 13:00:00 11,5 8,2 - - 15 8 - - NW 1000,0 21 36 0,0
20.10.2017 12:00:00 11,5 8,0 - - 21 11 - - NNW 999,7 30 54 0,0
20.10.2017 11:00:00 10,7 9,3 - - 18 10 - - NW 999,8 17 0 0,0
20.10.2017 10:00:00 10,1 9,4 10,7 11,2 21 11 - - NW 999,3 22 0 0,0
20.10.2017 09:00:00 9,9 9,5 - - 24 13 - - NW 998,1 9 0 0,2
20.10.2017 08:00:00 10,5 10,0 - - 26 14 - - NW 997,1 5 0 0,0
20.10.2017 07:00:00 10,8 10,4 - - 15 8 - - WNW 996,6 1,7 0 0,0
20.10.2017 06:00:00 10,8 10,5 - - 11 6 - - WNW 995,9 45 0 0,2
20.10.2017 05:00:00 10,8 10,5 - - 9 5 - - WZW 995,8 10 0 0,2
20.10.2017 04:00:00 11,0 10,5 - - 0 0 - - N 995,5 1,1 0 0,2
20.10.2017 03:00:00 11,7 11,1 - - 0 0 - - N 995,6 4,3 0 0,6
20.10.2017 02:00:00 11,9 11,2 - - 2 1 - - WZW 995,9 7 0 2,2
20.10.2017 01:00:00 12,2 11,2 - - 4 2 - - Z 996,0 12 - 0,0
20.10.2017 00:00:00 12,5 11,1 - - 9 5 - - ZO 996,1 16 0 0,2
19.10.2017 23:00:00 12,6 11,1 - - 11 6 - - ZO 996,2 19 0 0,2
19.10.2017 22:00:00 12,8 11,3 - - 16 9 - - ZO 996,3 17 0 0,0
19.10.2017 21:00:00 13,1 11,1 - - 11 6 - - ZZO 996,4 16 0 0,0
19.10.2017 20:00:00 13,6 10,5 - - 21 11 - - ZO 995,9 35 0 0,0
19.10.2017 19:00:00 12,9 10,7 - - 16 9 - - OZO 996,1 25 0 0,0
19.10.2017 18:00:00 13,7 10,4 - - 21 11 - - ZO 996,2 28 0 0,0
19.10.2017 17:00:00 13,6 10,4 - - 29 16 - - OZO 996,4 28 0 0,0
19.10.2017 16:00:00 13,6 10,3 - - 31 17 - - OZO 996,5 24 0 0,0
19.10.2017 15:00:00 13,6 10,5 - - 31 17 - - OZO 996,9 26 0 0,0
19.10.2017 14:00:00 13,7 10,4 - - 31 17 - - OZO 997,3 40 0 0,0
19.10.2017 13:00:00 13,4 9,9 - - 35 19 48 26 OZO 997,8 30 0 0,2
19.10.2017 12:00:00 13,2 10,0 - - 28 15 - - OZO 998,3 30 0 0,0
19.10.2017 11:00:00 12,8 9,8 - - 29 16 46 25 OZO 998,5 30 0 0,0
19.10.2017 10:00:00 12,5 9,7 10,7 11,4 35 19 - - OZO 998,7 20 0 0,0
19.10.2017 09:00:00 12,4 9,4 - - 31 17 - - OZO 998,7 27 0 0,0
19.10.2017 08:00:00 12,3 9,1 - - 29 16 - - OZO 998,9 30 0 0,0
19.10.2017 07:00:00 12,2 8,9 - - 28 15 - - OZO 999,1 35 0 0,0
19.10.2017 06:00:00 12,0 8,5 - - 22 12 - - ZO 999,4 50 0 0,0
19.10.2017 05:00:00 11,1 7,8 - - 24 13 - - OZO 1000,5 45 0 0,0
19.10.2017 04:00:00 10,2 7,9 - - 24 13 - - OZO 1001,3 21 0 0,0
19.10.2017 03:00:00 10,5 7,2 - - 16 9 - - OZO 1002,3 30 0 0,0
19.10.2017 02:00:00 10,7 7,2 - - 21 11 - - ZO 1003,0 30 0 0,0
19.10.2017 01:00:00 10,1 7,1 - - 26 14 - - OZO 1003,8 50 - 0,0
19.10.2017 00:00:00 10,0 6,5 - - 28 15 - - OZO 1004,7 50 0 0,0
18.10.2017 23:00:00 10,3 7,1 - - 28 15 - - OZO 1005,6 45 0 0,0
18.10.2017 22:00:00 10,4 7,3 - - 28 15 - - OZO 1006,6 40 0 0,0
18.10.2017 21:00:00 10,3 7,1 - - 28 15 - - OZO 1007,5 30 0 0,0
18.10.2017 20:00:00 10,4 7,1 - - 34 18 - - OZO 1007,9 35 0 0,0
18.10.2017 19:00:00 10,6 7,0 - - 29 16 - - OZO 1008,6 28 0 0,0
18.10.2017 18:00:00 11,2 6,3 - - 26 14 - - ZO 1009,3 45 0 0,0
18.10.2017 17:00:00 11,3 6,7 - - 18 10 - - ZO 1010,1 35 0 0,0
18.10.2017 16:00:00 11,3 6,4 - - 18 10 - - OZO 1010,7 40 0 0,0
18.10.2017 15:00:00 11,4 6,5 - - 18 10 - - OZO 1011,4 40 0 0,0
18.10.2017 14:00:00 11,5 6,4 - - 16 9 - - ZO 1012,2 35 0 0,0
18.10.2017 13:00:00 11,2 6,1 - - 24 13 - - OZO 1012,8 25 0 0,0
18.10.2017 12:00:00 10,9 7,3 - - 21 11 - - OZO 1013,3 40 18 0,0
18.10.2017 11:00:00 10,4 6,7 - - 22 12 - - OZO 1013,6 30 60 0,0
18.10.2017 10:00:00 9,7 6,7 10,7 11,5 24 13 - - OZO 1014,1 30 30 0,0
18.10.2017 09:00:00 8,6 6,0 - - 22 12 - - O 1014,3 28 6 0,0
18.10.2017 08:00:00 8,2 5,6 - - 22 12 - - O 1014,3 29 0 0,0
18.10.2017 07:00:00 7,5 5,3 - - 18 10 - - O 1014,5 22 0 0,0
18.10.2017 06:00:00 7,7 5,1 - - 21 11 - - O 1014,9 25 0 0,0
18.10.2017 05:00:00 7,9 4,5 - - 22 12 - - O 1015,0 30 0 0,0
18.10.2017 04:00:00 7,6 4,4 - - 18 10 - - O 1015,6 24 0 0,0
18.10.2017 03:00:00 7,6 4,2 - - 18 10 - - O 1015,8 35 0 0,0
18.10.2017 02:00:00 7,8 4,9 - - 21 11 - - O 1016,2 18 0 0,0
18.10.2017 01:00:00 8,6 5,3 - - 18 10 - - O 1016,4 35 - 0,0
18.10.2017 00:00:00 8,6 5,4 - - 22 12 - - O 1016,4 18 0 0,0
17.10.2017 23:00:00 9,1 5,9 - - 16 9 - - O 1016,3 19 0 0,0

tt = temperatuur
td = dauwpunt
tt -20cm = temperatuur -20cm
tt -100cm = temperatuur -100cm
ff = windsnelheid
fx = windstoten
dd = windrichting
ppp = luchtdruk
vv = zicht
sd = Zonneschijnduur
rr = neerslag

Weerstations in de omgeving